カタログに戻る

ONEWEB-0340

運用中通信PO
NORAD 49206·PAYLOAD·🇬🇧 United Kingdom

打ち上げ Sep 14, 2021 から Baikonur Cosmodrome

Loading…

次のパス (今後24時間)

TLE

最新Source: CelesTrak SupGP

元期: Sep 14, 2026, 20:14 UTC

1 49206C 21083W   26257.84322176 -.00002848  00000+0 -72332-2 0  2579
2 49206  87.9165 317.6451 0001953 103.5876   8.9247 13.18690461    14

AllMySatでONEWEB-0340をリアルタイム追跡

Download on the App Store